Weather History for Crockett, TX

Change the Weather History Date:

Friday, June 14, 2013

  Actual Average (KLFK) Record (KLFK)
Temperature  
Mean Temperature 83 °F 80 °F  
Max Temperature 95 °F 90 °F 103 °F (1998)
Min Temperature 71 °F 70 °F 57 °F (1913)
Degree Days  
Heating Degree Days 0 0  
Month to date heating degree days 0  
Since 1 June heating degree days 0  
Since 1 July heating degree days 1917  
Cooling Degree Days 18 15  
Month to date cooling degree days 196  
Year to date cooling degree days 665  
Since 1 June cooling degree days 196  
Growing Degree Days 33 (Base 50)    
Moisture  
Dew Point 74 °F    
Average Humidity 75    
Maximum Humidity 100    
Minimum Humidity 49    
Precipitation  
Precipitation 0.00 in 0.17 in 2.16 in (1973)
Month to date precipitation 2.20  
Year to date precipitation 21.72  
Snow  
Snow 0.00 in - - ()
Month to date snowfall  
Since 1 June snowfall  
Since 1 July snowfall  
Snow Depth -    
Sea Level Pressure  
Sea Level Pressure 29.98 in    
Wind  
Wind Speed 2 mph (SW)    
Max Wind Speed 8 mph    
Max Gust Speed -    
Visibility 9 miles    
Events      
T = Trace of Precipitation, MM = Missing Value Source: NWS Daily Summary

Daily Weather History Graph

Daily Weather History Graph

Search for Another Location

Airport:

Trip Planner

Search our weather history database for the weather conditions in past years. The results will help you decide how hot, cold, wet, or windy it might be!

Date:

Astronomy

Jun. 14, 2013 Rise Set
Actual Time 6:16 AM CDT 8:27 PM CDT
Civil Twilight 5:48 AM CDT 8:55 PM CDT
Nautical Twilight 5:14 AM CDT 9:29 PM CDT
Astronomical Twilight 4:38 AM CDT 10:06 PM CDT
Moon 11:34 AM CDT (6/14) No Moon Set
Length of Visible Light 15h 06m
Length of Day
14h 10m
Waxing Crescent, 30% of the Moon is Illuminated
Jun 14
Waxing Crescent
Jun 16
First Quarter
Jun 23
Full
Jun 29
Last Quarter
Jul 8
New

Hourly Weather History & Observations

Time (CDT) Temp. Heat Index Dew Point Humidity Pressure Visibility Wind Dir Wind Speed Gust Speed Precip Events Conditions
12:15 AM 75.2 °F - 73.4 °F 94% 29.99 in 10.0 mi Calm Calm - N/A   Clear
12:35 AM 75.2 °F - 73.4 °F 94% 29.99 in 10.0 mi Calm Calm - N/A   Clear
12:55 AM 75.2 °F - 73.4 °F 94% 29.99 in 10.0 mi Calm Calm - N/A   Clear
1:15 AM 77.0 °F - 73.4 °F 89% 29.99 in 10.0 mi Calm Calm - N/A   Clear
1:35 AM 77.0 °F - 73.4 °F 89% 29.99 in 10.0 mi Calm Calm - N/A   Clear
1:55 AM 75.2 °F - 73.4 °F 94% 29.98 in 8.0 mi Calm Calm - N/A   Clear
2:15 AM 75.2 °F - 73.4 °F 94% 29.98 in 7.0 mi South 3.5 mph - N/A   Clear
2:35 AM 75.2 °F - 73.4 °F 94% 29.98 in 7.0 mi Calm Calm - N/A   Clear
2:55 AM 75.2 °F - 73.4 °F 94% 29.98 in 8.0 mi Calm Calm - N/A   Clear
3:15 AM 75.2 °F - 73.4 °F 94% 29.98 in 8.0 mi Calm Calm - N/A   Clear
3:35 AM 73.4 °F - 73.4 °F 100% 29.98 in 7.0 mi Calm Calm - N/A   Clear
3:55 AM 73.4 °F - 73.4 °F 100% 29.98 in 8.0 mi Calm Calm - N/A   Clear
4:15 AM 73.4 °F - 73.4 °F 100% 29.98 in 7.0 mi Calm Calm - N/A   Clear
4:35 AM 73.4 °F - 71.6 °F 94% 29.99 in 7.0 mi Calm Calm - N/A   Clear
4:55 AM 73.4 °F - 71.6 °F 94% 29.99 in 7.0 mi Calm Calm - N/A   Clear
5:15 AM 73.4 °F - 71.6 °F 94% 29.99 in 8.0 mi Calm Calm - N/A   Clear
5:35 AM 71.6 °F - 71.6 °F 100% 29.99 in 6.0 mi Calm Calm - N/A   Clear
5:55 AM 73.4 °F - 71.6 °F 94% 30.00 in 8.0 mi Calm Calm - N/A   Clear
6:15 AM 71.6 °F - 71.6 °F 100% 30.00 in 5.0 mi Calm Calm - N/A   Clear
6:35 AM 71.6 °F - 71.6 °F 100% 30.00 in 7.0 mi Calm Calm - N/A   Clear
6:55 AM 73.4 °F - 71.6 °F 94% 30.01 in 7.0 mi Calm Calm - N/A   Clear
7:15 AM 75.2 °F - 73.4 °F 94% 30.02 in 7.0 mi Calm Calm - N/A   Clear
7:35 AM 77.0 °F - 73.4 °F 89% 30.02 in 10.0 mi Calm Calm - N/A   Clear
7:55 AM 78.8 °F - 73.4 °F 83% 30.03 in 9.0 mi West 3.5 mph - N/A   Clear
8:15 AM 80.6 °F 85.4 °F 73.4 °F 79% 30.03 in 9.0 mi West 3.5 mph - N/A   Clear
8:35 AM 82.4 °F 89.5 °F 75.2 °F 79% 30.03 in 8.0 mi West 4.6 mph - N/A   Clear
8:55 AM 82.4 °F 89.5 °F 75.2 °F 79% 30.03 in 8.0 mi WNW 4.6 mph - N/A   Clear
9:15 AM 84.2 °F 92.3 °F 75.2 °F 74% 30.03 in 9.0 mi West 6.9 mph - N/A   Clear
9:35 AM 84.2 °F 92.3 °F 75.2 °F 74% 30.02 in 9.0 mi West 4.6 mph - N/A   Clear
9:55 AM 84.2 °F 92.3 °F 75.2 °F 74% 30.02 in 9.0 mi NNW 5.8 mph - N/A   Clear
10:15 AM 86.0 °F 93.4 °F 73.4 °F 66% 30.01 in 9.0 mi WNW 4.6 mph - N/A   Clear
10:35 AM 87.8 °F 95.6 °F 73.4 °F 62% 30.01 in 9.0 mi NNW 4.6 mph - N/A   Clear
10:55 AM 87.8 °F 97.6 °F 75.2 °F 66% 30.01 in 10.0 mi NNE 3.5 mph - N/A   Clear
11:15 AM 89.6 °F 98.2 °F 73.4 °F 59% 30.01 in 9.0 mi WNW 4.6 mph - N/A   Clear
11:35 AM 89.6 °F 98.2 °F 73.4 °F 59% 30.01 in 9.0 mi Calm Calm - N/A   Clear
11:55 AM 89.6 °F 98.2 °F 73.4 °F 59% 30.00 in 9.0 mi SW 5.8 mph - N/A   Clear
12:15 PM 89.6 °F 98.2 °F 73.4 °F 59% 30.00 in 9.0 mi SW 5.8 mph - N/A   Clear
12:35 PM 89.6 °F 98.2 °F 73.4 °F 59% 30.00 in 9.0 mi Calm Calm - N/A   Clear
12:55 PM 91.4 °F 100.1 °F 73.4 °F 55% 30.00 in 9.0 mi South 5.8 mph - N/A   Clear
1:15 PM 91.4 °F 100.1 °F 73.4 °F 55% 30.00 in 9.0 mi SW 4.6 mph - N/A   Clear
1:35 PM 91.4 °F 100.1 °F 73.4 °F 55% 29.99 in 10.0 mi SSW 4.6 mph - N/A   Partly Cloudy
1:55 PM 91.4 °F 100.1 °F 73.4 °F 55% 29.99 in 10.0 mi SSW 3.5 mph - N/A   Partly Cloudy
2:15 PM 93.2 °F 102.4 °F 73.4 °F 52% 29.98 in 10.0 mi South 8.1 mph - N/A   Clear
2:35 PM 93.2 °F 100.5 °F 71.6 °F 49% 29.98 in 10.0 mi Calm Calm - N/A   Clear
2:55 PM 95.0 °F 104.5 °F 73.4 °F 49% 29.97 in 9.0 mi South 5.8 mph - N/A   Unknown
3:15 PM 93.2 °F 102.4 °F 73.4 °F 52% 29.96 in 10.0 mi South 6.9 mph - N/A   Unknown
3:35 PM 93.2 °F 102.4 °F 73.4 °F 52% 29.96 in 9.0 mi South 6.9 mph - N/A   Clear
3:55 PM 93.2 °F 100.5 °F 71.6 °F 49% 29.95 in 10.0 mi SSW 4.6 mph - N/A   Unknown
4:15 PM 95.0 °F 104.5 °F 73.4 °F 49% 29.95 in 9.0 mi SSW 3.5 mph - N/A   Unknown
4:35 PM 95.0 °F 104.5 °F 73.4 °F 49% 29.94 in 9.0 mi SSE 6.9 mph - N/A   Unknown
4:55 PM 93.2 °F 102.4 °F 73.4 °F 52% 29.94 in 9.0 mi South 5.8 mph - N/A   Unknown
5:15 PM 93.2 °F 102.4 °F 73.4 °F 52% 29.93 in 10.0 mi South 6.9 mph - N/A   Unknown
5:35 PM 93.2 °F 100.5 °F 71.6 °F 49% 29.92 in 10.0 mi SSE 4.6 mph - N/A   Unknown
5:55 PM 93.2 °F 102.4 °F 73.4 °F 52% 29.92 in 10.0 mi South 6.9 mph - N/A   Unknown
6:15 PM 93.2 °F 102.4 °F 73.4 °F 52% 29.92 in 9.0 mi South 5.8 mph - N/A   Unknown
6:35 PM 93.2 °F 102.4 °F 73.4 °F 52% 29.91 in 9.0 mi SSW 4.6 mph - N/A   Unknown
6:55 PM 91.4 °F 100.1 °F 73.4 °F 55% 29.92 in 9.0 mi South 3.5 mph - N/A   Clear
7:15 PM 91.4 °F 100.1 °F 73.4 °F 55% 29.92 in 9.0 mi South 3.5 mph - N/A   Clear
7:35 PM 91.4 °F 102.5 °F 75.2 °F 59% 29.92 in 10.0 mi SSW 3.5 mph - N/A   Clear
7:55 PM 89.6 °F 102.2 °F 77.0 °F 66% 29.92 in 10.0 mi Calm Calm - N/A   Clear
8:15 PM 87.8 °F 99.7 °F 77.0 °F 70% 29.93 in 9.0 mi Calm Calm - N/A   Clear
8:35 PM 86.0 °F 96.9 °F 77.0 °F 74% 29.93 in 9.0 mi Calm Calm - N/A   Clear
8:55 PM 84.2 °F 94.1 °F 77.0 °F 79% 29.94 in 10.0 mi Calm Calm - N/A   Clear
9:15 PM 82.4 °F 92.4 °F 78.8 °F 89% 29.94 in 10.0 mi Calm Calm - N/A   Clear
9:35 PM 82.4 °F 92.4 °F 78.8 °F 89% 29.95 in 10.0 mi Calm Calm - N/A   Clear
9:55 PM 80.6 °F 87.1 °F 77.0 °F 89% 29.95 in 9.0 mi Calm Calm - N/A   Clear
10:15 PM 80.6 °F 87.1 °F 77.0 °F 89% 29.95 in 10.0 mi Calm Calm - N/A   Clear
10:35 PM 80.6 °F 87.1 °F 77.0 °F 89% 29.96 in 9.0 mi Calm Calm - N/A   Clear
10:55 PM 80.6 °F 87.1 °F 77.0 °F 89% 29.97 in 8.0 mi Calm Calm - N/A   Clear
11:15 PM 80.6 °F 87.1 °F 77.0 °F 89% 29.98 in 9.0 mi Calm Calm - N/A   Clear
11:35 PM 78.8 °F - 75.2 °F 89% 29.98 in 9.0 mi Calm Calm - N/A   Clear
11:55 PM 78.8 °F - 75.2 °F 89% 29.99 in 9.0 mi Calm Calm - N/A   Partly Cloudy